Time,TemperatureF,DewpointF,PressureIn,WindDirection,WindDirectionDegrees,WindSpeedMPH,WindSpeedGustMPH,Humidity,HourlyPrecipIn,Conditions,Clouds,dailyrainin,SoftwareType,DateUTC
2013-02-05 00:00:00,76.5,51.0,27.05,SE,142,5.4,5.4,32,0.00,,---,0.00,VWS V14.01,2013-02-05 06:00:00,
2013-02-05 00:05:00,76.5,51.0,27.05,East,97,4.9,7.6,32,0.00,,---,0.00,VWS V14.01,2013-02-05 06:05:00,
2013-02-05 00:10:00,76.5,51.0,27.05,SE,132,3.6,4.0,32,0.00,,---,0.00,VWS V14.01,2013-02-05 06:10:00,
2013-02-05 00:15:00,76.5,51.0,27.05,SE,124,4.0,5.4,32,0.00,,---,0.00,VWS V14.01,2013-02-05 06:15:00,
2013-02-05 00:20:00,76.5,51.0,27.05,East,93,3.6,3.6,32,0.00,,---,0.00,VWS V14.01,2013-02-05 06:20:00,
2013-02-05 00:25:00,76.5,51.0,27.05,East,85,3.6,3.6,32,0.00,,---,0.00,VWS V14.01,2013-02-05 06:25:00,
2013-02-05 00:30:00,76.5,51.0,27.05,SE,138,10.5,10.5,32,0.00,,---,0.00,VWS V14.01,2013-02-05 06:30:00,
2013-02-05 00:35:00,76.5,51.0,27.05,East,87,4.0,4.0,32,0.00,,---,0.00,VWS V14.01,2013-02-05 06:35:00,
2013-02-05 00:40:00,76.5,51.0,27.05,ESE,108,2.7,2.7,32,0.00,,---,0.00,VWS V14.01,2013-02-05 06:40:00,
2013-02-05 00:45:00,76.5,51.0,27.05,SSE,149,5.4,5.4,32,0.00,,---,0.00,VWS V14.01,2013-02-05 06:45:00,
2013-02-05 00:50:00,76.5,51.0,27.05,SE,138,4.0,8.7,32,0.00,,---,0.00,VWS V14.01,2013-02-05 06:50:00,
2013-02-05 00:55:00,76.5,51.0,27.05,SE,133,3.6,6.7,32,0.00,,---,0.00,VWS V14.01,2013-02-05 06:55:00,
2013-02-05 01:00:00,76.5,51.0,27.05,East,88,3.6,7.6,32,0.00,,---,0.00,VWS V14.01,2013-02-05 07:00:00,
2013-02-05 01:05:00,76.5,51.0,27.05,NE,56,2.7,4.9,32,0.00,,---,0.00,VWS V14.01,2013-02-05 07:05:00,
2013-02-05 01:10:00,76.5,51.0,27.05,SSE,158,3.1,8.3,32,0.00,,---,0.00,VWS V14.01,2013-02-05 07:10:00,
2013-02-05 01:15:00,76.5,51.0,27.05,SE,135,8.7,9.2,32,0.00,,---,0.00,VWS V14.01,2013-02-05 07:15:00,
2013-02-05 01:20:00,76.5,51.0,27.05,SE,144,3.6,3.6,32,0.00,,---,0.00,VWS V14.01,2013-02-05 07:20:00,
2013-02-05 01:25:00,76.5,51.0,27.05,ESE,114,4.0,8.3,32,0.00,,---,0.00,VWS V14.01,2013-02-05 07:25:00,
2013-02-05 01:30:00,76.5,51.0,27.05,SE,131,2.7,2.7,32,0.00,,---,0.00,VWS V14.01,2013-02-05 07:30:00,
2013-02-05 01:35:00,76.5,51.0,27.05,ENE,67,6.3,6.3,32,0.00,,---,0.00,VWS V14.01,2013-02-05 07:35:00,
2013-02-05 01:40:00,76.5,51.0,27.02,SE,135,7.6,7.6,32,0.00,,---,0.00,VWS V14.01,2013-02-05 07:40:00,
2013-02-05 01:45:00,76.5,51.0,27.02,SE,131,3.6,4.9,32,0.00,,---,0.00,VWS V14.01,2013-02-05 07:45:00,
2013-02-05 01:50:00,76.5,51.0,27.02,SE,133,2.7,4.0,32,0.00,,---,0.00,VWS V14.01,2013-02-05 07:50:00,
2013-02-05 01:55:00,76.5,51.0,27.02,ESE,109,4.9,4.9,32,0.00,,---,0.00,VWS V14.01,2013-02-05 07:55:00,
2013-02-05 02:00:00,76.5,51.0,27.02,SE,126,3.6,4.0,32,0.00,,---,0.00,VWS V14.01,2013-02-05 08:00:00,
2013-02-05 02:05:00,76.5,51.0,27.02,East,94,5.8,5.8,32,0.00,,---,0.00,VWS V14.01,2013-02-05 08:05:00,
2013-02-05 02:10:00,76.5,51.0,27.02,ESE,114,5.4,5.4,32,0.00,,---,0.00,VWS V14.01,2013-02-05 08:10:00,
2013-02-05 02:15:00,76.5,51.0,27.02,East,101,5.4,5.4,32,0.00,,---,0.00,VWS V14.01,2013-02-05 08:15:00,
2013-02-05 02:20:00,76.5,51.0,27.02,ESE,122,4.0,5.4,32,0.00,,---,0.00,VWS V14.01,2013-02-05 08:20:00,
2013-02-05 02:25:00,76.5,51.0,27.02,SE,124,5.8,8.3,32,0.00,,---,0.00,VWS V14.01,2013-02-05 08:25:00,
2013-02-05 02:30:00,76.5,51.0,27.02,East,88,4.0,4.5,32,0.00,,---,0.00,VWS V14.01,2013-02-05 08:30:00,
2013-02-05 02:35:00,76.5,51.0,27.02,East,98,9.6,9.6,32,0.00,,---,0.00,VWS V14.01,2013-02-05 08:35:00,
2013-02-05 02:40:00,76.5,51.0,27.02,SE,127,8.1,9.6,32,0.00,,---,0.00,VWS V14.01,2013-02-05 08:40:00,
2013-02-05 02:45:00,76.5,51.0,27.02,SE,137,3.6,3.6,32,0.00,,---,0.00,VWS V14.01,2013-02-05 08:45:00,
2013-02-05 02:50:00,76.5,51.0,27.02,ESE,109,3.6,4.9,32,0.00,,---,0.00,VWS V14.01,2013-02-05 08:50:00,
2013-02-05 02:55:00,76.5,51.0,27.02,ESE,106,8.7,8.7,32,0.00,,---,0.00,VWS V14.01,2013-02-05 08:55:00,
2013-02-05 03:00:00,76.5,51.0,27.02,East,81,10.1,10.1,32,0.00,,---,0.00,VWS V14.01,2013-02-05 09:00:00,
2013-02-05 03:05:00,76.5,51.0,27.02,SE,126,4.0,6.3,32,0.00,,---,0.00,VWS V14.01,2013-02-05 09:05:00,
2013-02-05 03:10:00,76.5,51.0,27.02,SE,131,8.1,8.1,32,0.00,,---,0.00,VWS V14.01,2013-02-05 09:10:00,
2013-02-05 03:15:00,76.5,51.0,27.02,SE,143,8.3,8.3,32,0.00,,---,0.00,VWS V14.01,2013-02-05 09:15:00,
2013-02-05 03:20:00,76.5,51.0,27.02,SE,136,3.6,5.4,32,0.00,,---,0.00,VWS V14.01,2013-02-05 09:20:00,
2013-02-05 03:25:00,76.5,51.0,27.02,SE,125,5.8,8.1,32,0.00,,---,0.00,VWS V14.01,2013-02-05 09:25:00,
2013-02-05 03:30:00,76.5,51.0,27.02,SE,130,5.8,5.8,32,0.00,,---,0.00,VWS V14.01,2013-02-05 09:30:00,
2013-02-05 03:35:00,76.5,51.0,27.02,East,91,6.3,11.0,32,0.00,,---,0.00,VWS V14.01,2013-02-05 09:35:00,
2013-02-05 03:40:00,76.5,51.0,27.02,ESE,108,6.3,6.3,32,0.00,,---,0.00,VWS V14.01,2013-02-05 09:40:00,
2013-02-05 03:45:00,76.5,51.0,27.02,SE,135,8.1,8.1,32,0.00,,---,0.00,VWS V14.01,2013-02-05 09:45:00,
2013-02-05 03:50:00,76.5,51.0,27.02,SE,140,3.6,5.4,32,0.00,,---,0.00,VWS V14.01,2013-02-05 09:50:00,
2013-02-05 03:55:00,76.5,51.0,27.02,SE,142,6.3,8.7,32,0.00,,---,0.00,VWS V14.01,2013-02-05 09:55:00,
2013-02-05 04:00:00,76.5,51.0,27.02,ESE,108,5.4,5.4,32,0.00,,---,0.00,VWS V14.01,2013-02-05 10:00:00,
2013-02-05 04:05:00,76.5,51.0,27.02,SE,133,5.8,5.8,32,0.00,,---,0.00,VWS V14.01,2013-02-05 10:05:00,
2013-02-05 04:10:00,76.5,51.0,27.02,SE,137,11.0,11.0,32,0.00,,---,0.00,VWS V14.01,2013-02-05 10:10:00,
2013-02-05 04:15:00,76.5,51.0,27.02,ESE,117,6.3,6.3,32,0.00,,---,0.00,VWS V14.01,2013-02-05 10:15:00,
2013-02-05 04:20:00,76.5,51.0,27.02,SE,141,9.6,9.6,32,0.00,,---,0.00,VWS V14.01,2013-02-05 10:20:00,
2013-02-05 04:25:00,76.5,51.0,27.02,SE,126,7.6,8.1,32,0.00,,---,0.00,VWS V14.01,2013-02-05 10:25:00,
2013-02-05 04:30:00,76.5,51.0,27.02,SSE,164,3.1,5.8,32,0.00,,---,0.00,VWS V14.01,2013-02-05 10:30:00,
2013-02-05 04:35:00,76.5,51.0,27.02,SE,140,4.9,4.9,32,0.00,,---,0.00,VWS V14.01,2013-02-05 10:35:00,
2013-02-05 04:40:00,76.5,51.0,27.02,SE,146,4.9,7.6,32,0.00,,---,0.00,VWS V14.01,2013-02-05 10:40:00,
2013-02-05 04:45:00,76.5,51.0,27.02,ESE,117,4.9,6.3,32,0.00,,---,0.00,VWS V14.01,2013-02-05 10:45:00,
2013-02-05 04:50:00,76.5,51.0,27.02,ESE,112,5.4,5.8,32,0.00,,---,0.00,VWS V14.01,2013-02-05 10:50:00,
2013-02-05 04:55:00,76.5,51.0,27.02,SE,126,2.7,3.6,32,0.00,,---,0.00,VWS V14.01,2013-02-05 10:55:00,
2013-02-05 05:00:00,76.5,51.0,27.02,East,82,2.7,3.1,32,0.00,,---,0.00,VWS V14.01,2013-02-05 11:00:00,
2013-02-05 05:05:00,76.5,51.0,27.02,ESE,123,5.4,5.4,32,0.00,,---,0.00,VWS V14.01,2013-02-05 11:05:00,
2013-02-05 05:10:00,76.5,51.0,27.02,SE,135,2.7,4.9,32,0.00,,---,0.00,VWS V14.01,2013-02-05 11:10:00,
2013-02-05 05:15:00,76.5,51.0,27.02,NE,44,4.0,4.0,32,0.00,,---,0.00,VWS V14.01,2013-02-05 11:15:00,
2013-02-05 05:20:00,76.5,51.0,27.02,SE,129,3.1,3.6,32,0.00,,---,0.00,VWS V14.01,2013-02-05 11:20:00,
2013-02-05 05:25:00,76.5,51.0,27.05,SE,128,3.1,3.1,32,0.00,,---,0.00,VWS V14.01,2013-02-05 11:25:00,
2013-02-05 05:30:00,76.5,51.0,27.05,SE,136,3.1,3.1,32,0.00,,---,0.00,VWS V14.01,2013-02-05 11:30:00,
2013-02-05 05:35:00,76.5,51.0,27.05,SE,137,3.1,6.3,32,0.00,,---,0.00,VWS V14.01,2013-02-05 11:35:00,
2013-02-05 05:40:00,76.5,51.0,27.05,East,92,5.4,5.4,32,0.00,,---,0.00,VWS V14.01,2013-02-05 11:40:00,
2013-02-05 05:45:00,76.5,51.0,27.05,SSE,156,7.6,7.6,32,0.00,,---,0.00,VWS V14.01,2013-02-05 11:45:00,
2013-02-05 05:50:00,76.5,51.0,27.05,SSE,150,4.0,4.9,32,0.00,,---,0.00,VWS V14.01,2013-02-05 11:50:00,
2013-02-05 05:55:00,76.5,51.0,27.05,East,92,3.1,4.0,32,0.00,,---,0.00,VWS V14.01,2013-02-05 11:55:00,
2013-02-05 06:00:00,76.5,51.0,27.05,ESE,102,3.1,3.1,32,0.00,,---,0.00,VWS V14.01,2013-02-05 12:00:00,
2013-02-05 06:05:00,76.5,51.0,27.05,ESE,104,4.9,4.9,32,0.00,,---,0.00,VWS V14.01,2013-02-05 12:05:00,
2013-02-05 06:10:00,76.5,51.0,27.05,East,91,4.0,4.0,32,0.00,,---,0.00,VWS V14.01,2013-02-05 12:10:00,
2013-02-05 06:15:00,76.5,51.0,27.05,SE,135,4.0,4.0,32,0.00,,---,0.00,VWS V14.01,2013-02-05 12:15:00,
2013-02-05 06:20:00,76.5,51.0,27.05,ESE,104,4.5,4.5,32,0.00,,---,0.00,VWS V14.01,2013-02-05 12:20:00,
2013-02-05 06:25:00,76.5,51.0,27.05,SE,136,3.6,4.0,32,0.00,,---,0.00,VWS V14.01,2013-02-05 12:25:00,
2013-02-05 06:30:00,76.5,51.0,27.05,South,170,5.8,5.8,32,0.00,,---,0.00,VWS V14.01,2013-02-05 12:30:00,
2013-02-05 06:35:00,76.5,51.0,27.05,ESE,111,6.3,6.3,32,0.00,,---,0.00,VWS V14.01,2013-02-05 12:35:00,
2013-02-05 06:40:00,76.5,51.0,27.08,SE,144,4.9,5.4,32,0.00,,---,0.00,VWS V14.01,2013-02-05 12:40:00,
2013-02-05 06:45:00,76.5,51.0,27.08,East,93,3.1,3.1,32,0.00,,---,0.00,VWS V14.01,2013-02-05 12:45:00,
2013-02-05 06:50:00,76.5,51.0,27.08,East,97,2.7,4.9,32,0.00,,---,0.00,VWS V14.01,2013-02-05 12:50:00,
2013-02-05 06:55:00,76.5,51.0,27.05,East,93,2.7,3.1,32,0.00,,---,0.00,VWS V14.01,2013-02-05 12:55:00,
2013-02-05 07:00:00,76.5,51.0,27.05,ESE,111,3.6,5.4,32,0.00,,---,0.00,VWS V14.01,2013-02-05 13:00:00,
2013-02-05 07:05:00,76.5,51.0,27.05,NE,48,5.4,6.3,32,0.00,,---,0.00,VWS V14.01,2013-02-05 13:05:00,
2013-02-05 07:10:00,76.5,51.0,27.08,East,83,5.4,5.4,32,0.00,,---,0.00,VWS V14.01,2013-02-05 13:10:00,
2013-02-05 07:15:00,76.5,51.0,27.08,ESE,121,3.1,4.0,32,0.00,,---,0.00,VWS V14.01,2013-02-05 13:15:00,
2013-02-05 07:20:00,76.5,51.0,27.08,East,93,3.6,6.3,32,0.00,,---,0.00,VWS V14.01,2013-02-05 13:20:00,
2013-02-05 07:25:00,76.5,51.0,27.08,NE,47,3.6,6.3,32,0.00,,---,0.00,VWS V14.01,2013-02-05 13:25:00,
2013-02-05 07:30:00,76.5,51.0,27.08,ENE,69,4.0,4.0,32,0.00,,---,0.00,VWS V14.01,2013-02-05 13:30:00,
2013-02-05 07:35:00,76.5,51.0,27.08,East,87,5.8,5.8,32,0.00,,---,0.00,VWS V14.01,2013-02-05 13:35:00,
2013-02-05 07:40:00,76.5,51.0,27.08,ESE,111,3.6,5.8,32,0.00,,---,0.00,VWS V14.01,2013-02-05 13:40:00,
2013-02-05 07:45:00,76.5,51.0,27.08,SE,135,3.1,3.1,32,0.00,,---,0.00,VWS V14.01,2013-02-05 13:45:00,
2013-02-05 07:50:00,76.5,51.0,27.08,ESE,116,2.7,5.8,32,0.00,,---,0.00,VWS V14.01,2013-02-05 13:50:00,
2013-02-05 07:55:00,76.5,51.0,27.11,SE,125,0.0,3.1,32,0.00,,---,0.00,VWS V14.01,2013-02-05 13:55:00,
2013-02-05 08:00:00,76.5,51.0,27.11,East,91,5.8,5.8,32,0.00,,---,0.00,VWS V14.01,2013-02-05 14:00:00,
2013-02-05 08:05:00,76.5,51.0,27.11,SSE,147,3.1,7.2,32,0.00,,---,0.00,VWS V14.01,2013-02-05 14:05:00,
2013-02-05 08:10:00,76.5,51.0,27.11,SE,126,3.1,4.0,32,0.00,,---,0.00,VWS V14.01,2013-02-05 14:10:00,
2013-02-05 08:15:00,76.5,51.0,27.11,SE,136,3.1,4.0,32,0.00,,---,0.00,VWS V14.01,2013-02-05 14:15:00,
2013-02-05 08:20:00,76.5,51.0,27.11,SSE,150,4.9,4.9,32,0.00,,---,0.00,VWS V14.01,2013-02-05 14:20:00,
2013-02-05 08:25:00,76.5,51.0,27.11,SE,138,5.4,5.4,32,0.00,,---,0.04,VWS V14.01,2013-02-05 14:25:00,
2013-02-05 08:30:00,76.5,51.0,27.11,ENE,74,4.0,4.0,32,0.00,,---,0.00,VWS V14.01,2013-02-05 14:30:00,
2013-02-05 08:35:00,76.5,51.0,27.11,ESE,106,3.6,5.4,32,0.00,,---,0.00,VWS V14.01,2013-02-05 14:35:00,
2013-02-05 08:40:00,76.5,51.0,27.11,East,90,4.9,4.9,32,0.00,,---,0.00,VWS V14.01,2013-02-05 14:40:00,
2013-02-05 08:45:00,76.5,51.0,27.11,South,191,5.4,5.4,32,0.00,,---,0.00,VWS V14.01,2013-02-05 14:45:00,
2013-02-05 08:50:00,76.5,51.0,27.11,East,88,8.1,10.5,32,0.00,,---,0.00,VWS V14.01,2013-02-05 14:50:00,
2013-02-05 08:55:00,76.5,51.0,27.11,East,81,7.6,11.0,32,0.00,,---,0.00,VWS V14.01,2013-02-05 14:55:00,
2013-02-05 09:00:00,76.5,51.0,27.11,ESE,105,14.5,14.5,32,0.00,,---,0.00,VWS V14.01,2013-02-05 15:00:00,
2013-02-05 09:05:00,76.5,51.0,27.11,ENE,72,10.1,10.1,32,0.00,,---,0.00,VWS V14.01,2013-02-05 15:05:00,
2013-02-05 09:10:00,76.5,51.0,27.11,East,90,3.6,3.6,32,0.00,,---,0.00,VWS V14.01,2013-02-05 15:10:00,
2013-02-05 09:15:00,76.5,51.0,27.11,East,96,8.7,8.7,32,0.00,,---,0.00,VWS V14.01,2013-02-05 15:15:00,
2013-02-05 09:20:00,76.5,51.0,27.11,ESE,102,3.6,3.6,32,0.00,,---,0.00,VWS V14.01,2013-02-05 15:20:00,
2013-02-05 09:25:00,76.5,51.0,27.11,East,97,5.4,7.6,32,0.00,,---,0.00,VWS V14.01,2013-02-05 15:25:00,
2013-02-05 09:30:00,76.5,51.0,27.11,SE,128,7.6,9.6,32,0.00,,---,0.00,VWS V14.01,2013-02-05 15:30:00,
2013-02-05 09:35:00,76.5,51.0,27.11,East,91,3.1,4.9,32,0.00,,---,0.00,VWS V14.01,2013-02-05 15:35:00,
2013-02-05 09:40:00,76.5,51.0,27.11,East,85,5.8,8.1,32,0.00,,---,0.00,VWS V14.01,2013-02-05 15:40:00,
2013-02-05 09:45:00,76.5,51.0,27.11,East,92,11.0,11.0,32,0.00,,---,0.00,VWS V14.01,2013-02-05 15:45:00,
2013-02-05 09:50:00,76.5,51.0,27.11,East,95,4.0,4.0,32,0.00,,---,0.00,VWS V14.01,2013-02-05 15:50:00,
2013-02-05 09:55:00,76.5,51.0,27.11,SE,137,8.7,8.7,32,0.00,,---,0.00,VWS V14.01,2013-02-05 15:55:00,
2013-02-05 10:00:00,76.5,51.0,27.11,East,90,3.6,8.3,32,0.00,,---,0.00,VWS V14.01,2013-02-05 16:00:00,
2013-02-05 10:05:00,76.5,51.0,27.11,East,100,5.8,10.5,32,0.00,,---,0.00,VWS V14.01,2013-02-05 16:05:00,
2013-02-05 10:10:00,76.5,51.0,27.08,ESE,110,8.7,8.7,32,0.00,,---,0.00,VWS V14.01,2013-02-05 16:10:00,
2013-02-05 10:15:00,76.5,51.0,27.08,East,86,6.3,10.5,32,0.00,,---,0.00,VWS V14.01,2013-02-05 16:15:00,
2013-02-05 10:20:00,76.5,51.0,27.08,ESE,103,4.9,8.7,32,0.00,,---,0.00,VWS V14.01,2013-02-05 16:20:00,
2013-02-05 10:25:00,76.5,51.0,27.11,SE,136,8.1,15.0,32,0.00,,---,0.00,VWS V14.01,2013-02-05 16:25:00,
2013-02-05 10:30:00,76.5,51.0,27.11,ESE,119,3.6,12.3,32,0.00,,---,0.00,VWS V14.01,2013-02-05 16:30:00,
2013-02-05 10:35:00,76.5,51.0,27.11,SE,139,8.1,8.1,32,0.00,,---,0.00,VWS V14.01,2013-02-05 16:35:00,
2013-02-05 10:40:00,76.5,51.0,27.11,East,95,6.3,6.3,32,0.00,,---,0.00,VWS V14.01,2013-02-05 16:40:00,
2013-02-05 10:45:00,76.5,51.0,27.11,ENE,78,8.7,8.7,32,0.00,,---,0.00,VWS V14.01,2013-02-05 16:45:00,
2013-02-05 10:50:00,76.5,51.0,27.11,ESE,112,10.5,10.5,32,0.00,,---,0.00,VWS V14.01,2013-02-05 16:50:00,
2013-02-05 10:55:00,76.5,51.0,27.11,NNE,29,7.6,8.3,32,0.00,,---,0.00,VWS V14.01,2013-02-05 16:55:00,
2013-02-05 11:00:00,76.5,51.0,27.11,South,176,5.4,5.8,32,0.00,,---,0.00,VWS V14.01,2013-02-05 17:00:00,
2013-02-05 11:05:00,76.5,51.0,27.11,ENE,59,4.9,10.5,32,0.00,,---,0.00,VWS V14.01,2013-02-05 17:05:00,
2013-02-05 11:10:00,76.5,51.0,27.11,SSE,165,3.6,7.6,32,0.00,,---,0.00,VWS V14.01,2013-02-05 17:10:00,
2013-02-05 11:15:00,76.5,51.0,27.11,South,181,8.3,9.6,32,0.00,,---,0.00,VWS V14.01,2013-02-05 17:15:00,
2013-02-05 11:20:00,76.5,51.0,27.11,ESE,105,7.6,8.7,32,0.00,,---,0.00,VWS V14.01,2013-02-05 17:20:00,
2013-02-05 11:25:00,76.5,51.0,27.08,SE,124,6.3,6.3,32,0.00,,---,0.00,VWS V14.01,2013-02-05 17:25:00,
2013-02-05 11:30:00,76.5,51.0,27.08,East,82,7.6,10.1,32,0.00,,---,0.00,VWS V14.01,2013-02-05 17:30:00,
2013-02-05 11:35:00,76.5,51.0,27.08,East,85,6.7,6.7,32,0.00,,---,0.00,VWS V14.01,2013-02-05 17:35:00,
2013-02-05 11:40:00,76.5,51.0,27.08,ENE,78,4.0,8.3,32,0.00,,---,0.00,VWS V14.01,2013-02-05 17:40:00,
2013-02-05 11:45:00,76.5,51.0,27.08,ESE,120,5.4,5.4,32,0.00,,---,0.00,VWS V14.01,2013-02-05 17:45:00,
2013-02-05 11:50:00,76.5,51.0,27.08,East,89,4.0,8.1,32,0.00,,---,0.00,VWS V14.01,2013-02-05 17:50:00,
2013-02-05 11:55:00,76.5,51.0,27.08,ENE,72,5.8,6.3,32,0.00,,---,0.00,VWS V14.01,2013-02-05 17:55:00,
2013-02-05 12:00:00,76.5,51.0,27.08,SE,131,6.3,8.1,32,0.00,,---,0.00,VWS V14.01,2013-02-05 18:00:00,
2013-02-05 12:05:00,76.5,51.0,27.08,ENE,65,3.6,6.3,32,0.00,,---,0.00,VWS V14.01,2013-02-05 18:05:00,
2013-02-05 12:10:00,76.5,51.0,27.05,East,85,10.5,10.5,32,0.00,,---,0.00,VWS V14.01,2013-02-05 18:10:00,
2013-02-05 12:15:00,76.5,51.0,27.05,ENE,68,5.8,5.8,32,0.00,,---,0.00,VWS V14.01,2013-02-05 18:15:00,
2013-02-05 12:20:00,76.5,51.0,27.05,South,169,6.3,8.7,32,0.00,,---,0.00,VWS V14.01,2013-02-05 18:20:00,
2013-02-05 12:25:00,76.5,51.0,27.08,East,87,5.8,8.1,32,0.00,,---,0.00,VWS V14.01,2013-02-05 18:25:00,
2013-02-05 12:30:00,76.5,51.0,27.08,SE,134,5.4,8.3,32,0.00,,---,0.00,VWS V14.01,2013-02-05 18:30:00,
2013-02-05 12:35:00,76.5,51.0,27.08,ENE,75,10.1,10.5,32,0.00,,---,0.00,VWS V14.01,2013-02-05 18:35:00,
2013-02-05 12:40:00,76.5,51.0,27.08,NE,54,3.1,4.0,32,0.00,,---,0.00,VWS V14.01,2013-02-05 18:40:00,
2013-02-05 12:45:00,76.5,51.0,27.08,ESE,112,3.6,10.1,32,0.00,,---,0.00,VWS V14.01,2013-02-05 18:45:00,
2013-02-05 12:50:00,76.5,51.0,27.08,South,190,3.6,4.9,32,0.00,,---,0.00,VWS V14.01,2013-02-05 18:50:00,
2013-02-05 12:55:00,76.5,51.0,27.05,SE,125,12.8,12.8,32,0.00,,---,0.00,VWS V14.01,2013-02-05 18:55:00,
2013-02-05 13:00:00,76.5,51.0,27.05,SSE,164,3.1,8.7,32,0.00,,---,0.00,VWS V14.01,2013-02-05 19:00:00,
2013-02-05 13:05:00,76.5,51.0,27.05,East,88,7.2,10.1,32,0.00,,---,0.00,VWS V14.01,2013-02-05 19:05:00,
2013-02-05 13:10:00,76.5,51.0,27.05,South,187,4.0,12.8,32,0.00,,---,0.00,VWS V14.01,2013-02-05 19:10:00,
2013-02-05 13:15:00,76.5,51.0,27.05,East,82,5.8,5.8,32,0.00,,---,0.00,VWS V14.01,2013-02-05 19:15:00,
2013-02-05 13:20:00,76.5,51.0,27.05,ENE,71,3.1,4.9,32,0.00,,---,0.00,VWS V14.01,2013-02-05 19:20:00,
2013-02-05 13:25:00,76.5,51.0,27.05,SE,127,5.4,10.1,32,0.00,,---,0.00,VWS V14.01,2013-02-05 19:25:00,
2013-02-05 13:30:00,76.5,51.0,27.05,SE,146,5.8,10.1,32,0.00,,---,0.00,VWS V14.01,2013-02-05 19:30:00,
2013-02-05 13:35:00,76.5,51.0,27.05,East,93,8.3,8.3,32,0.00,,---,0.00,VWS V14.01,2013-02-05 19:35:00,
2013-02-05 13:40:00,76.5,51.0,27.05,ESE,118,10.1,10.1,32,0.00,,---,0.00,VWS V14.01,2013-02-05 19:40:00,
2013-02-05 13:45:00,76.5,51.0,27.05,ESE,103,13.2,13.2,32,0.00,,---,0.00,VWS V14.01,2013-02-05 19:45:00,
2013-02-05 13:50:00,76.5,51.0,27.05,SE,135,8.7,8.7,32,0.00,,---,0.00,VWS V14.01,2013-02-05 19:50:00,
2013-02-05 13:55:00,76.5,51.0,27.05,ESE,105,2.2,3.1,32,0.00,,---,0.00,VWS V14.01,2013-02-05 19:55:00,
2013-02-05 14:00:00,76.5,51.0,27.05,SE,136,2.7,5.8,32,0.00,,---,0.00,VWS V14.01,2013-02-05 20:00:00,
2013-02-05 14:05:00,76.5,51.0,27.05,ENE,68,7.6,7.6,32,0.00,,---,0.00,VWS V14.01,2013-02-05 20:05:00,
2013-02-05 14:10:00,76.5,51.0,27.05,East,81,5.8,5.8,32,0.00,,---,0.00,VWS V14.01,2013-02-05 20:10:00,
2013-02-05 14:15:00,76.5,51.0,27.05,NE,55,8.7,8.7,32,0.00,,---,0.00,VWS V14.01,2013-02-05 20:15:00,
2013-02-05 14:20:00,76.5,51.0,27.05,SE,144,5.8,5.8,32,0.00,,---,0.00,VWS V14.01,2013-02-05 20:20:00,
2013-02-05 14:25:00,76.5,51.0,27.05,SSE,163,2.7,3.6,32,0.00,,---,0.00,VWS V14.01,2013-02-05 20:25:00,
2013-02-05 14:30:00,76.5,51.0,27.05,SSE,164,4.0,5.4,32,0.00,,---,0.00,VWS V14.01,2013-02-05 20:30:00,
2013-02-05 14:35:00,76.5,51.0,27.05,ESE,113,4.9,4.9,32,0.00,,---,0.00,VWS V14.01,2013-02-05 20:35:00,
2013-02-05 14:40:00,76.5,51.0,27.05,NNE,31,2.7,6.3,32,0.00,,---,0.00,VWS V14.01,2013-02-05 20:40:00,
2013-02-05 14:45:00,76.5,51.0,27.05,NNE,25,4.0,4.0,32,0.00,,---,0.00,VWS V14.01,2013-02-05 20:45:00,
2013-02-05 14:50:00,76.5,51.0,27.05,East,88,6.3,6.3,32,0.00,,---,0.00,VWS V14.01,2013-02-05 20:50:00,
2013-02-05 14:55:00,76.5,51.0,27.05,ENE,77,5.8,5.8,32,0.00,,---,0.00,VWS V14.01,2013-02-05 20:55:00,
2013-02-05 15:00:00,76.5,51.0,27.05,SE,146,5.8,8.1,32,0.00,,---,0.00,VWS V14.01,2013-02-05 21:00:00,
2013-02-05 15:05:00,76.5,51.0,27.05,ESE,102,4.9,7.6,32,0.00,,---,0.00,VWS V14.01,2013-02-05 21:05:00,
2013-02-05 15:10:00,76.5,51.0,27.05,SSE,157,3.1,3.1,32,0.00,,---,0.00,VWS V14.01,2013-02-05 21:10:00,
2013-02-05 15:15:00,76.5,51.0,27.05,SW,221,3.1,3.1,32,0.00,,---,0.00,VWS V14.01,2013-02-05 21:15:00,
2013-02-05 15:20:00,76.5,51.0,27.05,East,99,3.1,3.1,32,0.00,,---,0.00,VWS V14.01,2013-02-05 21:20:00,
2013-02-05 15:25:00,76.5,51.0,27.05,NE,46,2.7,2.7,32,0.00,,---,0.00,VWS V14.01,2013-02-05 21:25:00,
2013-02-05 15:30:00,76.5,51.0,27.05,ENE,62,4.9,8.3,32,0.00,,---,0.00,VWS V14.01,2013-02-05 21:30:00,
2013-02-05 15:35:00,76.5,51.0,27.05,East,86,5.4,5.4,32,0.00,,---,0.00,VWS V14.01,2013-02-05 21:35:00,
2013-02-05 15:40:00,76.5,51.0,27.05,ESE,114,8.1,8.1,32,0.00,,---,0.00,VWS V14.01,2013-02-05 21:40:00,
2013-02-05 15:45:00,76.5,51.0,27.05,ESE,105,2.2,4.0,32,0.00,,---,0.00,VWS V14.01,2013-02-05 21:45:00,
2013-02-05 15:50:00,76.5,51.0,27.05,WNW,283,2.2,5.4,32,0.00,,---,0.00,VWS V14.01,2013-02-05 21:50:00,
2013-02-05 15:55:00,76.5,51.0,27.05,NNE,26,2.7,7.2,32,0.00,,---,0.00,VWS V14.01,2013-02-05 21:55:00,
2013-02-05 16:00:00,76.5,51.0,27.05,NNE,12,3.1,3.6,32,0.00,,---,0.00,VWS V14.01,2013-02-05 22:00:00,
2013-02-05 16:05:00,76.5,51.0,27.05,East,98,6.3,8.1,32,0.00,,---,0.00,VWS V14.01,2013-02-05 22:05:00,
2013-02-05 16:10:00,76.5,51.0,27.05,East,90,5.4,5.8,32,0.00,,---,0.00,VWS V14.01,2013-02-05 22:10:00,
2013-02-05 16:15:00,76.5,51.0,27.05,ENE,57,5.4,5.4,32,0.00,,---,0.00,VWS V14.01,2013-02-05 22:15:00,
2013-02-05 16:20:00,76.5,51.0,27.05,ENE,63,6.3,8.3,32,0.00,,---,0.00,VWS V14.01,2013-02-05 22:20:00,
2013-02-05 16:25:00,76.5,51.0,27.05,ESE,121,0.0,0.0,32,0.00,,---,0.00,VWS V14.01,2013-02-05 22:25:00,
2013-02-05 16:30:00,76.5,51.0,27.05,East,79,3.6,3.6,32,0.00,,---,0.00,VWS V14.01,2013-02-05 22:30:00,
2013-02-05 16:35:00,76.5,51.0,27.05,ESE,103,5.4,5.8,32,0.00,,---,0.00,VWS V14.01,2013-02-05 22:35:00,
2013-02-05 16:40:00,76.5,51.0,27.05,SSE,154,3.1,3.6,32,0.00,,---,0.00,VWS V14.01,2013-02-05 22:40:00,
2013-02-05 16:45:00,76.5,51.0,27.05,SE,143,2.2,2.2,32,0.00,,---,0.00,VWS V14.01,2013-02-05 22:45:00,
2013-02-05 16:50:00,76.5,51.0,27.05,East,98,0.0,0.0,32,0.00,,---,0.00,VWS V14.01,2013-02-05 22:50:00,
2013-02-05 16:55:00,76.5,51.0,27.05,ENE,74,3.6,3.6,32,0.00,,---,0.00,VWS V14.01,2013-02-05 22:55:00,
2013-02-05 17:00:00,76.5,51.0,27.05,SE,137,4.0,4.0,32,0.00,,---,0.00,VWS V14.01,2013-02-05 23:00:00,
2013-02-05 17:05:00,76.5,51.0,27.05,ENE,61,3.1,3.1,32,0.00,,---,0.00,VWS V14.01,2013-02-05 23:05:00,
2013-02-05 17:10:00,76.5,51.0,27.05,ENE,76,4.0,4.0,32,0.00,,---,0.00,VWS V14.01,2013-02-05 23:10:00,
2013-02-05 17:15:00,76.5,51.0,27.05,SE,140,3.6,6.3,32,0.00,,---,0.00,VWS V14.01,2013-02-05 23:15:00,
2013-02-05 17:20:00,76.5,51.0,27.05,ESE,118,3.6,3.6,32,0.00,,---,0.00,VWS V14.01,2013-02-05 23:20:00,
2013-02-05 17:25:00,76.5,51.0,27.05,SSE,151,5.8,5.8,32,0.00,,---,0.00,VWS V14.01,2013-02-05 23:25:00,
2013-02-05 17:30:00,76.5,51.0,27.05,ESE,122,5.8,5.8,32,0.00,,---,0.00,VWS V14.01,2013-02-05 23:30:00,
2013-02-05 17:35:00,76.5,51.0,27.05,SSE,148,7.6,7.6,32,0.00,,---,0.00,VWS V14.01,2013-02-05 23:35:00,
2013-02-05 17:40:00,76.5,51.0,27.05,East,83,5.4,5.8,32,0.00,,---,0.00,VWS V14.01,2013-02-05 23:40:00,
2013-02-05 17:45:00,76.5,51.0,27.05,South,171,5.8,5.8,32,0.00,,---,0.00,VWS V14.01,2013-02-05 23:45:00,
2013-02-05 17:50:00,76.5,51.0,27.05,SE,132,5.8,5.8,32,0.00,,---,0.00,VWS V14.01,2013-02-05 23:50:00,
2013-02-05 17:55:00,76.5,51.0,27.05,SE,127,4.5,4.5,32,0.00,,---,0.00,VWS V14.01,2013-02-05 23:55:00,
2013-02-05 18:00:00,76.5,51.0,27.05,SE,139,5.4,5.8,32,0.00,,---,0.00,VWS V14.01,2013-02-06 00:00:00,
2013-02-05 18:05:00,76.5,51.0,27.05,ESE,112,3.1,5.8,32,0.00,,---,0.00,VWS V14.01,2013-02-06 00:05:00,
2013-02-05 18:10:00,76.5,51.0,27.05,SE,132,5.4,8.1,32,0.00,,---,0.00,VWS V14.01,2013-02-06 00:10:00,
2013-02-05 18:15:00,76.5,51.0,27.05,ESE,112,6.3,6.3,32,0.00,,---,0.00,VWS V14.01,2013-02-06 00:15:00,
2013-02-05 18:20:00,76.5,51.0,27.05,SE,124,5.4,5.8,32,0.00,,---,0.00,VWS V14.01,2013-02-06 00:20:00,
2013-02-05 18:25:00,76.5,51.0,27.05,SE,125,5.8,5.8,32,0.00,,---,0.00,VWS V14.01,2013-02-06 00:25:00,
2013-02-05 18:30:00,76.5,51.0,27.05,SE,129,5.8,5.8,32,0.00,,---,0.00,VWS V14.01,2013-02-06 00:30:00,
2013-02-05 18:35:00,76.5,51.0,27.05,ENE,69,5.8,5.8,32,0.00,,---,0.00,VWS V14.01,2013-02-06 00:35:00,
2013-02-05 18:40:00,76.5,51.0,27.05,SE,138,10.1,10.1,32,0.00,,---,0.00,VWS V14.01,2013-02-06 00:40:00,
2013-02-05 18:45:00,76.5,51.0,27.05,ESE,121,5.4,5.4,32,0.00,,---,0.00,VWS V14.01,2013-02-06 00:45:00,
2013-02-05 18:50:00,76.5,51.0,27.05,SE,135,3.6,6.3,32,0.00,,---,0.00,VWS V14.01,2013-02-06 00:50:00,
2013-02-05 18:55:00,76.5,51.0,27.08,ESE,120,5.8,5.8,32,0.00,,---,0.00,VWS V14.01,2013-02-06 00:55:00,
2013-02-05 19:00:00,76.5,51.0,27.08,ESE,107,10.1,10.1,32,0.00,,---,0.00,VWS V14.01,2013-02-06 01:00:00,
2013-02-05 19:05:00,76.5,51.0,27.08,ESE,102,4.9,4.9,32,0.00,,---,0.00,VWS V14.01,2013-02-06 01:05:00,
2013-02-05 19:10:00,76.5,51.0,27.08,East,100,7.6,7.6,32,0.00,,---,0.00,VWS V14.01,2013-02-06 01:10:00,
2013-02-05 19:15:00,76.5,51.0,27.08,ESE,106,5.8,5.8,32,0.00,,---,0.00,VWS V14.01,2013-02-06 01:15:00,
2013-02-05 19:20:00,76.5,51.0,27.08,East,81,5.4,5.8,32,0.00,,---,0.00,VWS V14.01,2013-02-06 01:20:00,
2013-02-05 19:25:00,76.5,51.0,27.08,ESE,110,5.4,5.4,32,0.00,,---,0.00,VWS V14.01,2013-02-06 01:25:00,
2013-02-05 19:30:00,76.5,51.0,27.08,ESE,121,8.1,11.9,32,0.00,,---,0.00,VWS V14.01,2013-02-06 01:30:00,
2013-02-05 19:35:00,76.5,51.0,27.08,East,95,4.0,5.8,32,0.00,,---,0.00,VWS V14.01,2013-02-06 01:35:00,
2013-02-05 19:40:00,76.5,51.0,27.08,ESE,108,5.4,5.4,32,0.00,,---,0.00,VWS V14.01,2013-02-06 01:40:00,
2013-02-05 19:45:00,76.5,51.0,27.08,East,96,5.8,5.8,32,0.00,,---,0.00,VWS V14.01,2013-02-06 01:45:00,
2013-02-05 19:50:00,76.5,51.0,27.08,ESE,109,4.0,8.1,32,0.00,,---,0.00,VWS V14.01,2013-02-06 01:50:00,
2013-02-05 19:55:00,76.5,51.0,27.05,East,97,5.4,7.6,32,0.00,,---,0.00,VWS V14.01,2013-02-06 01:55:00,
2013-02-05 20:00:00,76.5,51.0,27.05,ENE,67,3.6,5.8,32,0.00,,---,0.00,VWS V14.01,2013-02-06 02:00:00,
2013-02-05 20:05:00,76.5,51.0,27.05,East,84,6.3,6.3,32,0.00,,---,0.00,VWS V14.01,2013-02-06 02:05:00,
2013-02-05 20:10:00,76.5,51.0,27.08,East,82,3.1,5.4,32,0.00,,---,0.00,VWS V14.01,2013-02-06 02:10:00,
2013-02-05 20:15:00,76.5,51.0,27.08,East,86,4.0,4.0,32,0.00,,---,0.00,VWS V14.01,2013-02-06 02:15:00,
2013-02-05 20:20:00,76.5,51.0,27.08,ESE,114,7.6,7.6,32,0.00,,---,0.00,VWS V14.01,2013-02-06 02:20:00,
2013-02-05 20:25:00,76.5,51.0,27.08,ESE,102,5.4,5.4,32,0.00,,---,0.00,VWS V14.01,2013-02-06 02:25:00,
2013-02-05 20:30:00,76.5,51.0,27.08,East,86,6.3,8.1,32,0.00,,---,0.00,VWS V14.01,2013-02-06 02:30:00,
2013-02-05 20:35:00,76.5,51.0,27.08,East,85,5.8,6.3,32,0.00,,---,0.00,VWS V14.01,2013-02-06 02:35:00,
2013-02-05 20:40:00,76.5,51.0,27.08,East,91,6.3,8.7,32,0.00,,---,0.00,VWS V14.01,2013-02-06 02:40:00,
2013-02-05 20:45:00,76.5,51.0,27.08,ESE,119,6.3,6.3,32,0.00,,---,0.00,VWS V14.01,2013-02-06 02:45:00,
2013-02-05 20:50:00,76.5,51.0,27.08,ESE,119,8.3,8.3,32,0.00,,---,0.00,VWS V14.01,2013-02-06 02:50:00,
2013-02-05 20:55:00,76.5,51.0,27.08,SE,127,3.1,5.4,32,0.00,,---,0.00,VWS V14.01,2013-02-06 02:55:00,
2013-02-05 21:00:00,76.5,51.0,27.08,SSE,148,4.0,10.5,32,0.00,,---,0.00,VWS V14.01,2013-02-06 03:00:00,
2013-02-05 21:05:00,76.5,51.0,27.08,ENE,78,8.7,8.7,32,0.00,,---,0.00,VWS V14.01,2013-02-06 03:05:00,
2013-02-05 21:10:00,76.5,51.0,27.08,SE,136,4.0,5.8,32,0.00,,---,0.00,VWS V14.01,2013-02-06 03:10:00,
2013-02-05 21:15:00,76.5,51.0,27.08,ENE,68,6.3,8.3,32,0.00,,---,0.00,VWS V14.01,2013-02-06 03:15:00,
2013-02-05 21:20:00,76.5,51.0,27.08,East,101,3.1,6.3,32,0.00,,---,0.00,VWS V14.01,2013-02-06 03:20:00,
2013-02-05 21:25:00,76.5,51.0,27.08,ESE,116,3.1,3.6,32,0.00,,---,0.00,VWS V14.01,2013-02-06 03:25:00,
2013-02-05 21:30:00,76.5,51.0,27.08,East,100,7.6,8.3,32,0.00,,---,0.00,VWS V14.01,2013-02-06 03:30:00,
2013-02-05 21:35:00,76.5,51.0,27.08,ENE,72,5.8,5.8,32,0.00,,---,0.00,VWS V14.01,2013-02-06 03:35:00,
2013-02-05 21:40:00,76.5,51.0,27.08,SE,127,5.4,8.3,32,0.00,,---,0.00,VWS V14.01,2013-02-06 03:40:00,
2013-02-05 21:45:00,76.5,51.0,27.08,SE,133,4.9,4.9,32,0.00,,---,0.00,VWS V14.01,2013-02-06 03:45:00,
2013-02-05 21:50:00,76.5,51.0,27.08,SSE,154,5.4,5.4,32,0.00,,---,0.00,VWS V14.01,2013-02-06 03:50:00,
2013-02-05 21:55:00,76.5,51.0,27.08,East,96,6.3,6.3,32,0.00,,---,0.00,VWS V14.01,2013-02-06 03:55:00,
2013-02-05 22:00:00,76.5,51.0,27.08,SE,129,8.3,10.1,32,0.00,,---,0.00,VWS V14.01,2013-02-06 04:00:00,
2013-02-05 22:05:00,76.5,51.0,27.08,East,100,11.0,11.0,32,0.00,,---,0.00,VWS V14.01,2013-02-06 04:05:00,
2013-02-05 22:10:00,76.5,51.0,27.08,SE,136,5.8,5.8,32,0.00,,---,0.00,VWS V14.01,2013-02-06 04:10:00,
2013-02-05 22:15:00,76.5,51.0,27.08,SSE,150,5.4,8.1,32,0.00,,---,0.00,VWS V14.01,2013-02-06 04:15:00,
2013-02-05 22:20:00,76.5,51.0,27.08,SE,141,6.3,6.3,32,0.98,,---,0.98,VWS V14.01,2013-02-06 04:20:00,
2013-02-05 22:25:00,76.5,51.0,27.08,SE,141,8.7,8.7,32,0.98,,---,0.98,VWS V14.01,2013-02-06 04:25:00,
2013-02-05 22:30:00,76.5,51.0,27.08,SSE,148,8.3,8.3,32,0.98,,---,0.98,VWS V14.01,2013-02-06 04:30:00,
2013-02-05 22:35:00,76.5,51.0,27.08,SE,134,5.8,8.1,32,0.98,,---,0.98,VWS V14.01,2013-02-06 04:35:00,
2013-02-05 22:40:00,76.5,51.0,27.08,SE,132,4.0,10.1,32,0.98,,---,0.98,VWS V14.01,2013-02-06 04:40:00,
2013-02-05 22:45:00,76.5,51.0,27.08,SSE,150,10.5,10.5,32,0.98,,---,0.98,VWS V14.01,2013-02-06 04:45:00,
2013-02-05 22:50:00,76.5,51.0,27.08,SE,141,6.3,6.3,32,0.98,,---,0.98,VWS V14.01,2013-02-06 04:50:00,
2013-02-05 22:55:00,76.5,51.0,27.08,SSE,149,10.1,10.1,32,0.98,,---,0.98,VWS V14.01,2013-02-06 04:55:00,
2013-02-05 23:00:00,76.5,51.0,27.08,SE,140,8.7,8.7,32,0.98,,---,0.98,VWS V14.01,2013-02-06 05:00:00,
2013-02-05 23:05:00,76.5,51.0,27.08,South,182,10.5,11.9,32,0.98,,---,0.98,VWS V14.01,2013-02-06 05:05:00,
2013-02-05 23:10:00,76.5,51.0,27.08,SE,124,6.3,6.3,32,0.98,,---,0.98,VWS V14.01,2013-02-06 05:10:00,
2013-02-05 23:15:00,76.5,51.0,27.08,SE,138,4.9,6.3,32,0.98,,---,0.98,VWS V14.01,2013-02-06 05:15:00,
2013-02-05 23:20:00,76.5,51.0,27.08,ESE,116,6.3,6.3,32,0.00,,---,0.98,VWS V14.01,2013-02-06 05:20:00,
2013-02-05 23:25:00,76.5,51.0,27.05,ESE,103,7.2,7.2,32,0.00,,---,0.98,VWS V14.01,2013-02-06 05:25:00,
2013-02-05 23:30:00,76.5,51.0,27.05,East,91,5.8,5.8,32,0.00,,---,0.98,VWS V14.01,2013-02-06 05:30:00,
2013-02-05 23:35:00,76.5,51.0,27.05,ESE,117,8.3,8.3,32,0.00,,---,0.98,VWS V14.01,2013-02-06 05:35:00,
2013-02-05 23:40:00,76.5,51.0,27.08,SE,133,5.8,7.6,32,0.00,,---,0.98,VWS V14.01,2013-02-06 05:40:00,
2013-02-05 23:45:00,76.5,51.0,27.08,SE,136,5.4,8.1,32,0.00,,---,0.98,VWS V14.01,2013-02-06 05:45:00,
2013-02-05 23:50:00,76.5,51.0,27.08,SE,137,5.4,9.2,32,0.00,,---,0.98,VWS V14.01,2013-02-06 05:50:00,
2013-02-05 23:55:00,76.5,51.0,27.08,East,93,5.8,5.8,32,0.00,,---,0.98,VWS V14.01,2013-02-06 05:55:00,